Regional Weather Roundup
Issued by NWS Charleston, SC

Current Version | Previous Version | Graphics & Text | Print | Product List | Glossary On
Versions: 1 2 3 4 5 6 7 8 9 10 11 12 13 14 15 16 17 18 19 20 21 22 23 24 25 26 27 28 29 30 31 32 33 34 35 36 37 38 39 40 41 42 43 44 45 46 47 48 49 50
000
ASUS42 KCHS 252210
RWRCHS
REGIONAL WEATHER ROUNDUP
NATIONAL WEATHER SERVICE CHARLESTON SC
600 PM EDT FRI JUL 25 2014

NOTE: "FAIR" INDICATES FEW OR NO CLOUDS BELOW 12,000 FEET WITH NO
SIGNIFICANT WEATHER AND/OR OBSTRUCTIONS TO VISIBILITY.

NOT ALL STATIONS ARE QUALITY CONTROLLED BY THE NATIONAL
WEATHER SERVICE. USE DATA WITH CAUTION...ESPECIALLY
DEWPOINT OBSERVATIONS.

SCZ027-030-031-034>040-042>050-252300-
...SOUTH CAROLINA...

CITY           SKY/WX    TMP DP  RH WIND       PRES   REMARKS
N CHARLESTON   CLOUDY    76  72  87 S8        30.00R
WATERFRONT PRK NOT AVBL
FORT JOHNSON   NOT AVBL
MOUNT PLEASANT FAIR      73  73 100 SW7       30.00R FOG
JOHNS ISLAND   CLEAR     75  72  88 CALM      29.99F
PINOPOLIS        N/A     77  72  83 SE2       29.92S
MONCKS CORNER    N/A     73  73 100 CALM      30.00S
SUMMERVILLE    FAIR      75  73  94 CALM      30.00S THUNDER
BEAUFORT MCAS  TSTM      78  75  90 S6        29.98R
BEAUFORT ARPT  TSTM      73  73 100 W9G29     30.02R VSB 1/2
HILTON HEAD IS MOSUNNY   88  79  74 SE7G17    29.98R HX 102
GEORGETOWN     NOT AVBL
WALTERBORO       N/A    N/A N/A N/A NE5       30.00R
ORANGEBURG     LGT RAIN  83  73  72 E9        29.98R
BARNWELL       MOCLDY    88  73  62 SE5       29.96S HX  96
AIKEN          MOCLDY    90  72  55 N5        30.00S HX  96
MANNING        FAIR      79  77  94 CALM      29.99F
KINGSTREE      NOT AVBL
COLUMBIA       PTSUNNY   89  70  53 CALM      29.97R HX  94
SUMTER         PTSUNNY   83  75  76 E7        29.98S HX  91
FLORENCE       CLOUDY    82  74  76 SE5       29.99S
MYRTLE BEACH   MOSUNNY   79  73  83 CALM      29.99S
N MYRTLE BEACH CLOUDY    81  75  82 E8        29.99S

$$

GAZ063-065-086>088-099>101-113>116-118-119-134-136>141-150-252300-
...GEORGIA...

CITY           SKY/WX    TMP DP  RH WIND       PRES   REMARKS
SAVANNAH ARPT  PTSUNNY   93  70  46 S13       29.96R HX  99
HUNTER AAF     MOSUNNY   93  73  51 SW10      29.94R HX 101
FORT STEWART   PTSUNNY   93  69  45 S9        29.95R HX  98
STATESBORO     NOT AVBL
SYLVANIA       MOCLDY    89  78  70 CALM      29.96S HX 102
CLAXTON        MOCLDY    93  75  55 CALM      29.95S HX 104
THOMSON        MOSUNNY   90  78  67 CALM      30.01R HX 103
AUGUSTA-BUSH   CLOUDY    88  72  58 NE3       29.95R HX  94
AUGUSTA-DANIEL CLOUDY    89  71  55 MISG      29.97R HX  95
SWAINSBORO     MOCLDY    91  77  62 N6        29.97R HX 105
VIDALIA          N/A     91  70  49 W7        29.97R HX  97
ALMA           MOSUNNY   93  68  43 SW9       29.97R HX  97
WAYCROSS       PTSUNNY   97  73  45 W9        29.97R HX 106
JESUP          NOT AVBL
BRUNSWICK      SUNNY     90  73  58 SE13G20   29.98S HX  98
SAINT SIMONS   MOSUNNY   87  75  67 S12       29.99R HX  96

$$

SCZ027-028-034-036>038-045-046-048>050-GAZ119-141-252300-
...LAKE AND SUPPLEMENTAL COASTAL OBSERVATIONS...

STATION/POSITION TIME  TEMP    WIND        PRES    WAVE   SWELL
                       AIR SEA DIR/SP/G            HT/PER HT/PER/DIR
                 (UTC) (F)     (DEG/KT/KT) (MB)    (FT/S) (FT/S/D)
UPR LAKE MARION  NOT AVBL
WINYAH BAY       2100   75     230/  4     1016.0R
LAKE MURRAY      2100   85      CALM  /  3 1014.2R
ACE BASIN NERRS  2100   74     140/  4     1015.0S
FORT PULASKI     2200   87     170/  5/ 10 1014.8R
SAPELO ISLAND    2100   91     150/ 12     1015.0S

$$

ANZ835-935-AMZ111-154-330-350-352-354-374-450-454-472-252300-
...C-MAN AND BUOY OBSERVATIONS...

STATION/POSITION TIME  TEMP    WIND        PRES    WAVE   SWELL
                       AIR SEA DIR/SP/G            HT/PER HT/PER/DIR
                 (UTC) (F)     (DEG/KT/KT) (MB)    (FT/S) (FT/S/D)
FOLLY BEACH CMAN 2100   76     180/  9/ 10 1016.4F
BUOY 41004       2200   80 83  190/  4/  6 1015.1F   3/ 5   2/ 5
BUOY 41008       2200   84 85  170/ 19/ 23 1015.1R   2/ 4
5E ST. MARYS GA  2200      85                N/A     3/ 3
FRYING PAN BUOY  NOT AVBL
BUOY 41025       2200          VRB  6/  8  1016.2S   3/ 8   2/160/ 8
CAPE LOOKOUT NC  2100   78     110/ 10/ 11 1016.1F
BUOY 41002       2138   81 82  240/ 12/ 14 1016.9F   4/ 8   3/250/ 8
BUOY 41010       2200   84 85  200/  8/ 10 1017.6F   2/ 8   2/130/ 8
BUOY 41012       NOT AVBL
ST AUGUSTINE FL  2200   76     210/  5/  6 1017.5F
CAPERS NEARSHORE NOT AVBL
FRIPP NEARSHORE  NOT AVBL


$$



USA.gov is the U.S. government's official web portal to all federal, state and local government web resources and services.